DW2465 Weather Reports


Display with metric or nautical units.
time (UTC)temp
F
wind
direction
speed
MPH
gust
MPH
rain 1hr
in
rain 24hr
in
rain mn
in
humidity
%
barometer
mb
20210730104610 63 360 0.0 0.0 0.00 0.00 0.00 84 1019.7
20210730103034 63 360 0.0 0.0 0.00 0.00 0.00 86 1019.7
20210730101527 63 360 0.0 0.0 0.00 0.00 0.00 87 1019.4
20210730100042 63 360 0.0 0.0 0.00 0.00 0.00 86 1019.4
20210730094545 64 360 0.0 0.0 0.00 0.00 0.00 85 1019.2
20210730093109 63 360 0.0 0.0 0.00 0.00 0.00 86 1019.1
20210730091619 63 360 0.0 0.0 0.00 0.00 0.00 86 1019.0
20210730090039 64 360 0.0 0.0 0.00 0.00 0.00 85 1018.9
20210730084556 64 360 0.0 0.0 0.00 0.00 0.00 85 1018.6
20210730083043 64 360 0.0 2.0 0.00 0.00 0.00 85 1018.7
20210730081608 64 355 0.0 0.0 0.00 0.00 0.00 85 1018.8
20210730080042 64 355 0.0 0.0 0.00 0.00 0.00 85 1018.7
20210730074514 64 355 0.0 0.0 0.00 0.00 0.00 85 1018.6
20210730073018 65 355 0.0 0.0 0.00 0.00 0.00 85 1018.6
20210730071506 65 355 0.0 0.0 0.00 0.00 0.00 85 1018.6
20210730070022 65 355 0.0 0.0 0.00 0.00 0.00 84 1018.5
20210730064508 66 355 0.0 0.0 0.00 0.00 0.00 84 1018.7
20210730063315 66 355 0.0 0.0 0.00 0.00 0.00 83 1018.9
20210730061622 66 355 0.0 0.0 0.00 0.00 0.00 82 1018.8
20210730060317 66 355 0.0 0.0 0.00 0.00 0.00 82 1018.6
20210730054700 66 355 0.0 0.0 0.00 0.00 0.00 82 1018.6
20210730053138 67 355 0.0 0.0 0.00 0.00 0.00 82 1018.7
20210730051731 66 355 0.0 0.0 0.00 0.00 0.00 82 1018.6
20210730050143 66 355 0.0 0.0 0.00 0.00 0.00 81 1018.7
20210730044623 67 355 0.0 0.0 0.00 0.00 0.00 80 1018.6
20210730043132 68 355 0.0 1.0 0.00 0.00 0.00 79 1018.7
20210730041751 68 355 0.0 1.0 0.00 0.00 0.00 77 1018.6
20210730040100 69 355 0.0 0.0 0.00 0.00 0.00 75 1018.5
20210730034626 69 355 0.0 0.0 0.00 0.00 0.00 75 1018.6
20210730033304 69 355 0.0 2.0 0.00 0.00 0.00 75 1018.3
20210730031641 70 351 0.0 0.0 0.00 0.00 0.00 75 1018.2
20210730030109 70 349 0.0 0.0 0.00 0.00 0.00 74 1018.0
20210730024605 70 350 0.0 2.0 0.00 0.00 0.00 73 1017.8
20210730023052 71 341 0.0 0.0 0.00 0.00 0.00 73 1017.5
20210730021541 71 342 0.0 0.0 0.00 0.00 0.00 72 1017.4
20210730020033 71 342 0.0 0.0 0.00 0.00 0.00 69 1017.3
20210730014528 72 342 0.0 0.0 0.00 0.00 0.00 68 1017.0
20210730013023 73 342 0.0 0.0 0.00 0.00 0.00 66 1017.0
20210730011612 74 342 0.0 0.0 0.00 0.00 0.00 64 1017.0
20210730010107 74 340 0.0 2.0 0.00 0.00 0.00 64 1017.1
20210730004533 74 343 0.0 0.0 0.00 0.00 0.00 63 1017.2
20210730003026 74 315 0.0 2.0 0.00 0.00 0.00 61 1017.2
20210730001607 75 350 0.0 1.0 0.00 0.00 0.00 60 1017.0
20210730000134 75 325 0.0 1.0 0.00 0.00 0.00 58 1017.0
20210729234555 76 351 0.0 4.0 0.00 0.00 0.00 57 1016.8
20210729233150 77 345 0.0 1.0 0.00 0.00 0.00 57 1016.7
20210729231602 77 323 0.0 2.0 0.00 0.00 0.00 56 1016.7
20210729230051 77 336 0.0 2.0 0.00 0.00 0.00 54 1016.5
20210729223014 78 346 1.0 10.0 0.00 0.00 0.00 54 1016.4
20210729221549 79 355 0.0 5.0 0.00 0.00 0.00 54 1016.3
20210729220039 79 30 0.0 9.0 0.00 0.00 0.00 53 1016.1
20210729214618 79 10 1.0 11.0 0.00 0.00 0.00 52 1016.1
20210729213041 79 360 0.0 11.0 0.00 0.00 0.00 53 1016.1
20210729211535 79 360 0.0 3.0 0.00 0.00 0.00 59 1016.0
20210729210059 79 298 0.0 1.0 0.00 0.00 0.00 59 1016.1
20210729204527 79 294 0.0 8.0 0.00 0.00 0.00 61 1016.0
20210729203045 79 343 0.0 1.0 0.00 0.00 0.00 62 1015.8
20210729201633 78 355 0.0 10.0 0.00 0.00 0.00 62 1015.8
20210729200045 78 315 1.0 8.0 0.00 0.00 0.00 62 1015.9
20210729194524 78 315 0.0 9.0 0.00 0.00 0.00 62 1016.1
20210729193026 78 330 0.0 3.0 0.00 0.00 0.00 62 1016.1
20210729191524 78 350 0.0 8.0 0.00 0.00 0.00 63 1016.1
20210729190026 77 360 0.0 5.0 0.00 0.00 0.00 66 1016.0
20210729184515 77 5 1.0 10.0 0.00 0.00 0.00 61 1016.1
20210729183010 77 23 0.0 9.0 0.00 0.00 0.00 64 1016.0
20210729181508 77 24 0.0 5.0 0.00 0.00 0.00 63 1016.0
20210729180009 77 330 1.0 9.0 0.00 0.00 0.00 62 1016.1
20210729174509 77 360 0.0 10.0 0.00 0.00 0.00 63 1016.1
20210729173012 77 318 0.0 10.0 0.00 0.00 0.00 62 1016.1
20210729171514 76 355 0.0 8.0 0.00 0.00 0.00 65 1016.1
20210729170011 76 317 3.0 13.0 0.00 0.00 0.00 64 1016.0
20210729164725 77 346 1.0 8.0 0.00 0.00 0.00 66 1016.0
20210729163141 76 318 1.0 12.0 0.00 0.00 0.00 66 1016.0
20210729161729 76 342 0.0 9.0 0.00 0.00 0.00 67 1015.9
20210729160234 76 26 0.0 8.0 0.00 0.00 0.00 68 1015.6
20210729154606 76 347 3.0 10.0 0.00 0.00 0.00 68 1015.6
20210729153053 75 34 0.0 12.0 0.00 0.00 0.00 71 1015.4
20210729151534 75 314 5.0 14.0 0.00 0.00 0.00 72 1015.5
20210729150023 75 355 6.0 11.0 0.00 0.00 0.00 75 1015.3
20210729144546 74 335 4.0 11.0 0.00 0.00 0.00 76 1015.3
20210729143035 74 9 3.0 15.0 0.00 0.00 0.00 77 1015.1
20210729141517 73 342 7.0 13.0 0.00 0.00 0.00 76 1015.1
20210729140020 73 22 7.0 14.0 0.00 0.03 0.00 78 1015.0
20210729134523 72 12 6.0 14.0 0.00 0.03 0.00 80 1014.8
20210729134521 72 9 6.0 14.0 0.00 0.03 0.00 80 1014.8
20210729133017 72 355 5.0 12.0 0.00 0.03 0.00 80 1014.7
20210729131508 72 326 8.0 14.0 0.00 0.03 0.00 81 1014.5
20210729130132 71 9 6.0 14.0 0.00 0.22 0.00 82 1014.4
20210729124629 71 314 5.0 15.0 0.00 0.22 0.00 83 1014.2
20210729123110 71 333 6.0 13.0 0.00 0.22 0.00 83 1014.0
20210729121547 70 342 6.0 14.0 0.00 0.22 0.00 83 1013.7
20210729120048 70 336 8.0 12.0 0.00 0.22 0.00 83 1013.6
20210729114524 71 340 5.0 11.0 0.00 0.22 0.00 82 1013.5
20210729113129 71 350 2.0 12.0 0.00 0.22 0.00 82 1013.2
20210729111606 71 316 3.0 10.0 0.00 0.22 0.00 81 1013.1
20210729110057 71 313 3.0 10.0 0.00 0.22 0.00 81 1012.9